Kosmos-332

operational
NORAD ID: 4369 Int'l Des: 1970-028 Owner: OKB10 Country: SU
LEOCIRCULAR

Kosmos-332について

説明を読み込み中...

リアルタイム位置

3D地球を読み込み中...

次回通過

高度履歴

Altitude vs Time

uPlot chart will show altitude changes over time

軌道要素

1 4369U 70028A 26061.16189718 .00000273 00000-0 72742-4 0 9993
2 4369 74.0343 106.7576 0006078 342.3695 17.7255 14.53135834952550
Epoch: Mar 2, 2026 • Age: 29 hours

現在のステータス

高度 721.9 km
速度 7.49 km/s
衛星直下点 19.54°N, 36.92°E
タイプ other

大規模コンステレーション

Loading constellations...